Regional Weather Roundup
Issued by NWS

Home | Current Version | Previous Version | Graphics & Text | Print | Product List | Glossary On
Versions: 1 2 3 4 5 6 7 8 9 10 11 12 13 14 15 16 17 18 19 20 21 22 23 24 25 26 27 28 29 30 31 32 33 34 35 36 37 38 39 40 41 42 43 44 45 46 47 48 49 50
000
ASUS43 KLMK 290402
RWRKY
KENTUCKY REGIONAL WEATHER ROUNDUP
NATIONAL WEATHER SERVICE LOUISVILLE KY
1200 AM EDT SUN MAR 29 2015

NOTE "FAIR" INDICATES FEW OR NO CLOUDS BELOW 12,000 FEET
WITH NO SIGNIFICANT WEATHER AND/OR OBSTRUCTIONS TO VISIBILITY.

KYZ001>023-026-027-061>063-070>075-290500-
WESTERN AND SOUTH CENTRAL KENTUCKY

CITY           SKY/WX    TMP DP  RH WIND       PRES   REMARKS
PADUCAH        CLEAR     33  18  53 E3        30.33R
HENDERSON      CLEAR     25  19  80 CALM      30.35S
OWENSBORO      CLEAR     33  23  67 CALM      30.35S
HOPKINSVILLE   CLEAR     34  16  49 NE1       30.34R
BOWLING GREEN  CLEAR     33  16  49 CALM      30.35R
GLASGOW        NOT AVBL
$$

KYZ024-025-028>034-038-045-046-053-290500-
NORTH CENTRAL KENTUCKY

CITY           SKY/WX    TMP DP  RH WIND       PRES   REMARKS
LOUISVILLE/SDF CLEAR     34  15  46 E3        30.36R
LOUISVILLE/LOU CLEAR     32  17  54 CALM      30.36R
FORT KNOX      CLEAR     29  15  57 CALM      30.33R
$$

KYZ035>037-039>044-047>052-055>060-089>105-290500-
NORTHEAST KENTUCKY

CITY           SKY/WX    TMP DP  RH WIND       PRES   REMARKS
LEXINGTON      CLEAR     30  13  49 E3        30.34R
COVINGTON      CLEAR     30  13  49 NE6       30.35R WCI  24
FRANKFORT      CLEAR     24  16  71 CALM      30.34R
$$

KYZ054-064>069-076>088-106>120-290500-
SOUTHEAST KENTUCKY

CITY           SKY/WX    TMP DP  RH WIND       PRES   REMARKS
JACKSON        CLEAR     28  10  46 VRB3      30.32R
LONDON         CLEAR     30  13  49 CALM      30.32R
SOMERSET       CLEAR     28  19  69 CALM      30.36R
MIDDLESBORO    CLEAR     29  19  66 CALM      30.33R
MONTICELLO     CLEAR     23  19  85 CALM      30.37R
$$




USA.gov is the U.S. government's official web portal to all federal, state and local government web resources and services.